Retour au catalogue

OPS 5058

DMSP 5B F2

ActifMétéoSSO
NORAD 5903·PAYLOAD·🇺🇸 United States

Lancé Mar 24, 1972 depuis Vandenberg Space Force Base

Loading…

Prochains Passages (prochaines 24 heures)

TLE

FraisSource: Space-Track

Époque: Sep 14, 2026, 14:57 UTC

1 05903U 72018A   26257.62306650  .00000087  00000-0  56151-4 0  9992
2 05903  99.1182  94.9471 0050093 196.3194 163.6373 14.25532961902955

Suivez OPS 5058 en temps réel avec AllMySat

Download on the App Store